Weather History for Wiscasset, ME

Change the Weather History Date:

Tuesday, November 6, 2012

  Actual Average Record
Temperature  
Mean Temperature 30 °F -  
Max Temperature 39 °F 47 °F 60 °F (2008)
Min Temperature 21 °F 30 °F 21 °F (2011)
Degree Days  
Heating Degree Days 35    
Moisture  
Dew Point 16 °F    
Average Humidity 61    
Maximum Humidity 85    
Minimum Humidity 32    
Precipitation  
Precipitation 0.00 in - - ()
Sea Level Pressure  
Sea Level Pressure 30.21 in    
Wind  
Wind Speed 1 mph (NW)    
Max Wind Speed 9 mph    
Max Gust Speed -    
Visibility 10 miles    
Events      
Averages and records for this station are not official NWS values.
T = Trace of Precipitation, MM = Missing Value Source: NWS Daily Summary

Daily Weather History Graph

Daily Weather History Graph

Search for Another Location

Airport:

Trip Planner

Search our weather history database for the weather conditions in past years. The results will help you decide how hot, cold, wet, or windy it might be!

Date:

Astronomy

Nov. 06, 2012 Rise Set
Actual Time 6:22 AM EST 4:21 PM EST
Civil Twilight 5:51 AM EST 4:52 PM EST
Nautical Twilight 5:17 AM EST 5:26 PM EST
Astronomical Twilight 4:43 AM EST 6:00 PM EST
Moon 11:00 PM EST (11/6) 12:11 PM EST (11/6)
Length of Visible Light 11h 00m
Length of Day
9h 59m
Waning Gibbous, 53% of the Moon is Illuminated
Nov 6
Waning Gibbous
Nov 6
Last Quarter
Nov 13
New
Nov 20
First Quarter
Nov 28
Full

Hourly Weather History & Observations

Time (EST) Temp. Windchill Dew Point Humidity Pressure Visibility Wind Dir Wind Speed Gust Speed Precip Events Conditions
12:53 AM 24.1 °F - 18.0 °F 77% 30.11 in 10.0 mi Calm Calm - N/A   Clear
1:53 AM 24.1 °F - 18.0 °F 77% 30.12 in 10.0 mi Calm Calm - N/A   Clear
2:53 AM 23.0 °F - 18.0 °F 81% 30.14 in 10.0 mi Calm Calm - N/A   Clear
3:53 AM 21.9 °F - 18.0 °F 85% 30.15 in 10.0 mi Calm Calm - N/A   Clear
4:53 AM 21.9 °F - 17.1 °F 82% 30.16 in 10.0 mi Calm Calm - N/A   Clear
5:53 AM 21.0 °F - 17.1 °F 85% 30.17 in 10.0 mi Calm Calm - N/A   Clear
6:53 AM 27.0 °F - 16.0 °F 63% 30.19 in 10.0 mi Calm Calm - N/A   Clear
7:53 AM 30.9 °F 27.5 °F 17.1 °F 57% 30.20 in 10.0 mi Variable 3.5 mph - N/A   Clear
8:53 AM 34.0 °F 26.6 °F 14.0 °F 44% 30.22 in 10.0 mi NW 9.2 mph - N/A   Clear
9:53 AM 35.1 °F 31.0 °F 12.9 °F 40% 30.23 in 10.0 mi Variable 4.6 mph - N/A   Clear
10:53 AM 37.0 °F 32.4 °F 12.9 °F 37% 30.22 in 10.0 mi Variable 5.8 mph - N/A   Clear
11:53 AM 37.9 °F - 12.9 °F 36% 30.21 in 10.0 mi Calm Calm - N/A   Clear
12:53 PM 39.9 °F 35.1 °F 12.9 °F 33% 30.21 in 10.0 mi Variable 6.9 mph - N/A   Clear
1:53 PM 39.9 °F 37.8 °F 12.0 °F 32% 30.21 in 10.0 mi Variable 3.5 mph - N/A   Clear
2:53 PM 39.9 °F 36.7 °F 12.0 °F 32% 30.22 in 10.0 mi Variable 4.6 mph - N/A   Clear
3:53 PM 37.9 °F - 12.0 °F 35% 30.22 in 10.0 mi Calm Calm - N/A   Clear
4:53 PM 30.0 °F - 18.0 °F 61% 30.23 in 10.0 mi Calm Calm - N/A   Clear
5:53 PM 28.0 °F - 17.1 °F 63% 30.25 in 10.0 mi Calm Calm - N/A   Clear
6:53 PM 26.1 °F - 18.0 °F 71% 30.26 in 10.0 mi Calm Calm - N/A   Clear
7:53 PM 25.0 °F - 18.0 °F 75% 30.27 in 10.0 mi Calm Calm - N/A   Clear
8:53 PM 25.0 °F - 18.0 °F 75% 30.28 in 10.0 mi Calm Calm - N/A   Clear
9:53 PM 25.0 °F - 17.1 °F 72% 30.27 in 10.0 mi Calm Calm - N/A   Clear
10:53 PM 24.1 °F - 18.0 °F 77% 30.27 in 10.0 mi Calm Calm - N/A   Clear
11:53 PM 23.0 °F - 17.1 °F 78% 30.26 in 10.0 mi Calm Calm - N/A   Clear